This demonstration page uses our WeatherBlox Daily Observations layout. Learn more.

41.55636, -103.73856

Hourly Observations for August 23, 2016

Temp ( °F °C ) Dew Point ( °F °C ) Humidity (%) Winds ( mph kmh ) Pressure ( in mb ) Visibility ( mi km ) Precip ( " mm )
12:53 am 00:53 Clear 59 15 54 12.2 83 83 E 3 6 29.69 1006 10 16.0934 0 0
1:53 am 01:53 Clear 60 15.6 55 12.8 84 84 E 8 13 29.69 1005 10 16.0934 0 0
2:53 am 02:53 Clear 58 14.4 54 12.2 87 87 E 3 6 29.69 1006 10 16.0934 0 0
3:53 am 03:53 Clear 57 13.9 54 12.2 90 90 E 7 11 29.7 1006 10 16.0934 0 0
4:53 am 04:53 Clear 57 13.9 54 12.2 90 90 E 3 6 29.71 1006 10 16.0934 0 0
5:53 am 05:53 Clear with Mist and Fog 54 12.2 53 11.7 97 97 W 3 6 29.73 1007 5 8.0467 0 0
6:45 am 06:45 Sunny with Mist and Fog 54 12.2 52 11.1 93 93 NW 6 9 29.83 1010 2 3.21868 0 0
6:53 am 06:53 Sunny with Mist and Fog 54 12.2 52 11.1 93 93 WNW 3 6 29.75 1008 5 8.0467 0 0
7:53 am 07:53 Sunny 63 17.2 55 12.8 76 76 NNW 9 15 29.79 1009 10 16.0934 0 0
8:53 am 08:53 Sunny 69 20.6 52 11.1 55 55 WNW 9 15 29.82 1010 10 16.0934 0 0
9:53 am 09:53 Sunny 74 23.3 47 8.3 38 38 WNW 8 13 29.83 1010 10 16.0934 0 0
10:53 am 10:53 Sunny 79 26.1 35 1.7 20 20 WNW 16 26 29.83 1010 10 16.0934 0 0
11:53 am 11:53 Sunny 84 28.9 34 1.1 17 17 NW 20 31 29.82 1010 10 16.0934 0 0
12:53 pm 12:53 Sunny 85 29.4 34 1.1 16 16 NW 18 30 29.83 1010 10 16.0934 0 0
1:53 pm 13:53 Sunny 88 31.1 34 1.1 15 15 NW 14 22 29.83 1010 9 14.48406 0 0
2:53 pm 14:53 Sunny 88 31.1 33 0.6 14 14 NNW 12 19 29.83 1010 10 16.0934 0 0
3:53 pm 15:53 Sunny 88 31.1 32 0 13 13 N 12 19 29.84 1011 10 16.0934 0 0
4:53 pm 16:53 Sunny 84 28.9 36 2.2 18 18 NNE 14 22 29.85 1011 10 16.0934 0 0
5:53 pm 17:53 Sunny 83 28.3 41 5 23 23 NE 8 13 29.87 1012 10 16.0934 0 0
6:53 pm 18:53 Sunny 72 22.2 46 7.8 40 40 NNE 8 13 29.9 1013 10 16.0934 0 0
7:53 pm 19:53 Clear 65 18.3 44 6.7 47 47 ENE 10 17 29.92 1013 10 16.0934 0 0
8:53 pm 20:53 Clear 64 17.8 45 7.2 50 50 ENE 10 17 29.93 1014 10 16.0934 0 0
9:53 pm 21:53 Clear 60 15.6 45 7.2 58 58 E 3 6 29.97 1015 10 16.0934 0 0
10:53 pm 22:53 Clear 57 13.9 46 7.8 67 67 ENE 7 11 29.98 1015 10 16.0934 0 0
11:53 pm 23:53 Clear 57 13.9 45 7.2 64 64 ENE 6 9 29.96 1015 10 16.0934 0 0

Powered by AerisWeather